[[{"header":{"parameterUnit":"m.s-1","parameterCategory":1,"la1":30.2992,"la2":30.254,"lo1":-89.0895,"lo2":-89.0443,"dy":0.0025,"dx":0.0025,"nx":19,"ny":19,"refTime":"2026-03-13T03:00:00:Z","depth":0,"parameterNumber":2,"parameterNumberName":"U-component_of_WINDS"},"data":[0,0,0,-3.0474,-3.0478,-3.0663,-3.0663,-3.0938,-3.0941,0,0,0,0,0,0,0,0,0,0,0,-3.0442,-3.0444,-3.0473,-3.0479,-3.0663,-3.0663,-3.0937,-3.0941,0,0,0,0,0,0,0,0,0,0,0,-3.044,-3.0444,-3.0447,-3.0479,-3.0663,-3.0664,-3.0937,-3.0784,0,0,0,0,0,0,0,0,0,0,-3.0598,-3.0591,-3.0443,-3.0447,-3.0481,-3.0663,-3.0664,-3.0776,-3.0794,-3.087,0,-3.0944,0,-3.0947,-3.0961,-3.0963,0,0,0,-3.0462,-3.0576,-3.0605,-3.0447,-3.0482,-3.0662,-3.0575,-3.0785,-3.0805,-3.0894,-3.0948,-3.0957,-3.0951,-3.0963,-3.0965,-3.1459,-3.1462,0,0,-3.0452,-3.0488,-3.0592,-3.0619,-3.0592,-3.0569,-3.0581,-3.0797,-3.0858,-3.0949,-3.0963,-3.0956,-3.0966,-3.0968,-3.1456,-3.146,0,0,0,-3.0434,-3.0481,-3.0504,-3.0609,-3.0639,-3.0575,-3.0588,-3.0849,-3.0853,-3.0965,-3.0959,-3.0967,-3.0971,-3.1453,-3.1458,-3.1644,0,0,0,-3.0427,-3.047,-3.05,-3.0524,-3.0636,-3.0746,-3.0636,-3.0838,-3.0861,-3.0958,-3.0967,-3.0974,-3.145,-3.1456,-3.1631,-3.1727,0,0,0,-3.0422,-3.0469,-3.0504,-3.0526,-3.0606,-3.0742,-3.0758,-3.0842,-3.0859,-3.0963,-3.0975,-3.1447,-3.1455,-3.162,-3.1708,-3.1866,0,0,0,-3.0428,-3.0669,-3.0508,-3.0774,-3.0605,-3.0855,-3.0756,-3.0941,-3.1053,-3.0969,-3.145,-3.1457,-3.1617,-3.1697,-3.1854,-3.2005,-3.2072,0,0,-3.0752,-3.0709,-3.0863,-3.0724,-3.1012,-3.0824,-3.1139,-3.1209,-3.1187,-3.137,-3.1382,-3.1635,-3.1707,-3.1863,-3.243,-3.2483,0,0,0,-3.0978,-3.1089,-3.1157,-3.1264,-3.1321,-3.1378,-3.1394,-3.1419,-3.1572,-3.1288,-3.1734,-3.1775,-3.1866,-3.1936,-3.1981,-3.2056,-3.1491,-3.1491,-3.149,-3.149,-3.1446,-3.1697,-3.1676,-3.1781,-3.1793,-3.1874,-3.191,-3.1838,-3.1944,-3.1999,-3.2347,-3.2431,-3.2465,-3.2543,-3.2074,-3.2075,-3.2076,-3.2076,-3.1961,-3.2111,-3.2005,-3.2211,-3.2164,-3.2336,-3.2358,-3.23,-3.2454,-3.2303,-3.2381,-3.222,-3.2524,-3.259,-3.209,-3.2088,-3.2086,-3.2085,-3.2084,-3.2291,-3.2355,-3.238,-3.2527,-3.2646,-3.2615,-3.2767,-3.2719,-3.2675,-3.2752,-3.2803,-3.28,-3.279,-3.2779,-3.278,-3.2782,-3.2783,-3.2783,-3.2784,-3.2625,-3.2646,-3.2779,-3.2858,-3.2918,-3.2992,-3.3005,-3.3064,-3.3116,-3.3069,-3.3069,-3.2986,-3.2561,-3.2456,-3.2803,-3.28,-3.2797,-3.2795,-3.2794,-3.3119,-3.2998,-3.3205,-3.3265,-3.3351,-3.3471,-3.3406,-3.3529,-3.3571,-3.3647,-3.3546,-3.324,-3.3193,-3.3157,-3.307,-3.3555,-3.3555,-3.3555,-3.3555,-3.3398,-3.3368,-3.3566,-3.3665,-3.3757,-3.3718,-3.3952,-3.3964,-3.3958,-3.3981,-3.3903,-3.3782,-3.3747,-3.3722,-3.3673,-3.359,-3.4197,-3.4198,-3.4199,-3.3699,-3.3675,-3.3884,-3.3873,-3.3937,-3.3992,-3.421,-3.4328,-3.4297,-3.4224,-3.3997,-3.397,-3.3774,-3.3713,-3.3637,-3.3563,-3.341,0,0]},{"header":{"parameterUnit":"m.s-1","parameterCategory":1,"la1":30.2992,"la2":30.254,"lo1":-89.0895,"lo2":-89.0443,"dy":0.0025,"dx":0.0025,"nx":19,"ny":19,"refTime":"2026-03-13T03:00:00:Z","depth":0,"parameterNumber":3,"parameterNumberName":"V-component_of_WINDS"},"data":[0,0,0,-1.6271,-1.6272,-1.6301,-1.6301,-1.6323,-1.6323,0,0,0,0,0,0,0,0,0,0,0,-1.6256,-1.6256,-1.6271,-1.6272,-1.6301,-1.6301,-1.6323,-1.6323,0,0,0,0,0,0,0,0,0,0,0,-1.6256,-1.6256,-1.6256,-1.6272,-1.6301,-1.6301,-1.6323,-1.6306,0,0,0,0,0,0,0,0,0,0,-1.628,-1.6261,-1.6256,-1.6256,-1.6272,-1.6301,-1.6301,-1.6306,-1.6307,-1.6305,0,-1.6302,0,-1.6313,-1.6324,-1.6324,0,0,0,-1.6277,-1.6259,-1.6273,-1.6256,-1.6272,-1.6301,-1.6289,-1.6307,-1.6309,-1.6307,-1.6303,-1.6304,-1.6314,-1.6324,-1.6324,-1.6296,-1.6295,0,0,-1.6275,-1.6258,-1.6272,-1.6274,-1.6271,-1.6288,-1.629,-1.6308,-1.6302,-1.6303,-1.6305,-1.6314,-1.6324,-1.6324,-1.6296,-1.6296,0,0,0,-1.6267,-1.6256,-1.627,-1.6273,-1.6279,-1.6289,-1.6291,-1.6301,-1.6307,-1.6305,-1.6314,-1.6324,-1.6324,-1.6296,-1.6296,-1.626,0,0,0,-1.6267,-1.6252,-1.6269,-1.6259,-1.6278,-1.6291,-1.6283,-1.6306,-1.6308,-1.6314,-1.6324,-1.6325,-1.6297,-1.6296,-1.6262,-1.6246,0,0,0,-1.6257,-1.6251,-1.6253,-1.6258,-1.627,-1.6291,-1.6298,-1.6307,-1.6314,-1.6324,-1.6325,-1.6297,-1.6296,-1.6264,-1.6249,-1.6231,0,0,0,-1.6241,-1.6222,-1.6252,-1.6234,-1.6269,-1.627,-1.6298,-1.63,-1.6304,-1.6324,-1.6297,-1.6296,-1.6264,-1.625,-1.6232,-1.6211,-1.6201,0,0,-1.6207,-1.6217,-1.6208,-1.6236,-1.6226,-1.6267,-1.6251,-1.6272,-1.6289,-1.6292,-1.6292,-1.6261,-1.6249,-1.6231,-1.6157,-1.6149,0,0,0,-1.6192,-1.6184,-1.6186,-1.619,-1.6205,-1.6216,-1.6241,-1.6249,-1.6252,-1.6288,-1.6252,-1.6245,-1.6235,-1.6226,-1.6219,-1.621,-1.6292,-1.6292,-1.6292,-1.6118,-1.614,-1.6126,-1.615,-1.6154,-1.6179,-1.6182,-1.6196,-1.6218,-1.6209,-1.6209,-1.6162,-1.615,-1.6145,-1.6136,-1.6202,-1.6202,-1.6202,-1.6202,-1.6069,-1.6061,-1.609,-1.6085,-1.6108,-1.6104,-1.6126,-1.6141,-1.6139,-1.6164,-1.6157,-1.618,-1.6136,-1.6128,-1.6199,-1.62,-1.62,-1.62,-1.62,-1.6021,-1.6021,-1.6031,-1.6036,-1.6038,-1.6063,-1.6059,-1.6081,-1.6101,-1.6093,-1.6094,-1.6094,-1.6095,-1.6093,-1.6092,-1.6092,-1.6092,-1.6092,-1.6092,-1.5967,-1.5979,-1.5974,-1.5987,-1.599,-1.5998,-1.6021,-1.6024,-1.6033,-1.6049,-1.6049,-1.6069,-1.6129,-1.6141,-1.6089,-1.609,-1.609,-1.609,-1.609,-1.5905,-1.5922,-1.5913,-1.5917,-1.5932,-1.593,-1.5957,-1.5962,-1.5968,-1.5964,-1.5987,-1.6028,-1.6039,-1.6045,-1.6055,-1.5984,-1.5984,-1.5984,-1.5984,-1.5863,-1.5871,-1.5865,-1.5868,-1.5874,-1.5897,-1.5883,-1.5899,-1.5919,-1.5923,-1.5937,-1.5954,-1.5959,-1.5967,-1.5974,-1.5984,-1.5897,-1.5897,-1.5896,-1.5824,-1.5833,-1.5818,-1.5838,-1.5851,-1.586,-1.5847,-1.5847,-1.5874,-1.5893,-1.5926,-1.593,-1.5957,-1.5965,-1.5984,-1.5995,-1.6013,0,0]}]]